sat.trackr.live / text

‹ back to catalog

ONEWEB-0563

NORAD 55800 · 2023-029E

PAYLOAD ACTIVE UNKNOWN

§ Identity

Operator
Country
UK
Launch date
2023-03-09
Launch site
AFETR
Launch vehicle
Mass (kg)
RCS (m²)

Purposes: comms

External: N2YO · Heavens-Above · Gunter

§ Orbital elements

Epoch: 2026-09-19T16:28:40.435104Z

Period
109.03 min
Inclination
87.9129°
Eccentricity
0.0002006
Mean motion
13.20769533 rev/d
Perigee alt
1,180.3 km
Apogee alt
1,183.3 km
Semi-major
7,559.9 km
B*
5.8618e-5
RAAN
255.6198°
Arg perigee
81.4806°
Mean anomaly
278.6555°
Rev number
17,361

§ Raw data

ONEWEB-05631 55800U 23029E   26262.68657911  .00000037  00000+0  58618-4 0  99962 55800  87.9129 255.6198 0002006  81.4806 278.6555 13.20769533173612

JSON: /api/v1/satellites/55800 · /tle

For live sub-satellite position, see the globe view (requires WebGL).

§ Visibility from observer

Set your observer location to see the next 7 days of passes ≥ 10°. The values pass through the URL so the page stays shareable.

No JS? Fill the form by hand. The geolocation button needs JavaScript.